| time (UTC) | temp F | wind direction | speed MPH | gust MPH | rain 1hr in | rain 24hr in | rain mn in | humidity % | barometer mb |
| 20260505130112 | 80 | 86 | 8.0 | 17.0 | 0.00 | 0.00 | 0.00 | 43 | 1018.9 |
| 20260505124608 | 80 | 118 | 5.0 | 16.0 | 0.00 | 0.00 | 0.00 | 46 | 1019.1 |
| 20260505124539 | 84 | 201 | 8.0 | 17.0 | 0.00 | 0.00 | 0.00 | 46 | 1009.3 |
| 20260505123116 | 79 | 91 | 8.0 | 16.0 | 0.00 | 0.00 | 0.00 | 46 | 1019.1 |
| 20260505123042 | 84 | 232 | 9.0 | 18.0 | 0.00 | 0.00 | 0.00 | 45 | 1009.4 |
| 20260505121555 | 80 | 94 | 8.0 | 15.0 | 0.00 | 0.00 | 0.00 | 49 | 1019.3 |
| 20260505121535 | 83 | 253 | 9.0 | 17.0 | 0.00 | 0.00 | 0.00 | 47 | 1009.5 |
| 20260505120057 | 80 | 195 | 7.0 | 20.0 | 0.00 | 0.00 | 0.00 | 51 | 1019.5 |
| 20260505120033 | 84 | 98 | 5.0 | 17.0 | 0.00 | 0.00 | 0.00 | 48 | 1009.7 |
| 20260505114612 | 80 | 86 | 7.0 | 16.0 | 0.00 | 0.00 | 0.00 | 53 | 1019.7 |
| 20260505114535 | 83 | 226 | 6.0 | 17.0 | 0.00 | 0.00 | 0.00 | 48 | 1010.2 |
| 20260505113058 | 79 | 177 | 9.0 | 15.0 | 0.00 | 0.00 | 0.00 | 55 | 1020.1 |
| 20260505113034 | 83 | 209 | 8.0 | 13.0 | 0.00 | 0.00 | 0.00 | 48 | 1010.4 |
| 20260505111605 | 79 | 144 | 7.0 | 13.0 | 0.00 | 0.00 | 0.00 | 53 | 1020.2 |
| 20260505111537 | 83 | 201 | 8.0 | 18.0 | 0.00 | 0.00 | 0.00 | 48 | 1010.7 |
| 20260505101557 | 78 | 151 | 5.0 | 13.0 | 0.00 | 0.00 | 0.00 | 59 | 1021.3 |
| 20260505101535 | 82 | 153 | 5.0 | 15.0 | 0.00 | 0.00 | 0.00 | 53 | 1011.9 |
| 20260505100055 | 78 | 88 | 5.0 | 12.0 | 0.00 | 0.00 | 0.00 | 58 | 1021.7 |
| 20260505100033 | 80 | 234 | 6.0 | 16.0 | 0.00 | 0.00 | 0.00 | 55 | 1012.3 |
| 20260505094552 | 76 | 57 | 5.0 | 12.0 | 0.00 | 0.00 | 0.00 | 59 | 1021.9 |
| 20260505094535 | 80 | 246 | 6.0 | 15.0 | 0.00 | 0.00 | 0.00 | 55 | 1012.7 |
| 20260505093058 | 76 | 137 | 6.0 | 12.0 | 0.00 | 0.00 | 0.00 | 60 | 1022.1 |
| 20260505093031 | 80 | 227 | 5.0 | 15.0 | 0.00 | 0.00 | 0.00 | 55 | 1013.0 |
| 20260505091554 | 76 | 98 | 6.0 | 13.0 | 0.00 | 0.00 | 0.00 | 63 | 1022.4 |
| 20260505091532 | 79 | 212 | 8.0 | 16.0 | 0.00 | 0.00 | 0.00 | 56 | 1013.4 |
| 20260505090059 | 74 | 125 | 6.0 | 14.0 | 0.00 | 0.00 | 0.00 | 64 | 1022.7 |
| 20260505090038 | 79 | 227 | 8.0 | 15.0 | 0.00 | 0.00 | 0.00 | 58 | 1013.7 |
| 20260505084554 | 73 | 87 | 7.0 | 14.0 | 0.00 | 0.00 | 0.00 | 66 | 1022.9 |
| 20260505084531 | 78 | 227 | 8.0 | 14.0 | 0.00 | 0.00 | 0.00 | 59 | 1013.8 |
| 20260505083105 | 73 | 150 | 5.0 | 13.0 | 0.00 | 0.00 | 0.00 | 68 | 1023.1 |
| 20260505083032 | 78 | 289 | 6.0 | 14.0 | 0.00 | 0.00 | 0.00 | 61 | 1014.0 |
| 20260505081558 | 72 | 136 | 5.0 | 14.0 | 0.00 | 0.00 | 0.00 | 70 | 1023.2 |
| 20260505081542 | 77 | 204 | 7.0 | 13.0 | 0.00 | 0.00 | 0.00 | 63 | 1014.3 |
| 20260505080057 | 71 | 176 | 6.0 | 14.0 | 0.00 | 0.00 | 0.00 | 71 | 1023.4 |
| 20260505080038 | 76 | 208 | 6.0 | 13.0 | 0.00 | 0.00 | 0.00 | 63 | 1014.3 |
| 20260505074553 | 71 | 139 | 9.0 | 13.0 | 0.00 | 0.00 | 0.00 | 71 | 1023.3 |
| 20260505074532 | 76 | 253 | 5.0 | 13.0 | 0.00 | 0.00 | 0.00 | 64 | 1014.4 |
| 20260505073056 | 70 | 125 | 7.0 | 14.0 | 0.00 | 0.00 | 0.00 | 74 | 1023.3 |
| 20260505073044 | 75 | 223 | 6.0 | 15.0 | 0.00 | 0.00 | 0.00 | 67 | 1014.5 |
| 20260505071553 | 69 | 130 | 6.0 | 16.0 | 0.00 | 0.00 | 0.00 | 77 | 1023.4 |
| 20260505071546 | 74 | 235 | 6.0 | 14.0 | 0.00 | 0.00 | 0.00 | 68 | 1014.5 |
| 20260505070055 | 67 | 171 | 8.0 | 14.0 | 0.00 | 0.00 | 0.00 | 80 | 1023.3 |
| 20260505070033 | 73 | 241 | 7.0 | 15.0 | 0.00 | 0.00 | 0.00 | 71 | 1014.3 |
| 20260505064559 | 66 | 118 | 10.0 | 16.0 | 0.00 | 0.00 | 0.00 | 81 | 1023.2 |
| 20260505064532 | 72 | 194 | 6.0 | 14.0 | 0.00 | 0.00 | 0.00 | 73 | 1014.4 |
| 20260505063055 | 65 | 179 | 8.0 | 19.0 | 0.00 | 0.00 | 0.00 | 83 | 1022.9 |
| 20260505063035 | 71 | 0 | 1.0 | 6.0 | 0.00 | 0.00 | 0.00 | 80 | 1014.6 |
| 20260505061554 | 64 | 185 | 11.0 | 19.0 | 0.00 | 0.00 | 0.00 | 85 | 1022.7 |
| 20260505061534 | 67 | 105 | 0.0 | 4.0 | 0.00 | 0.00 | 0.00 | 84 | 1014.6 |
| 20260505060058 | 63 | 153 | 10.0 | 18.0 | 0.00 | 0.00 | 0.00 | 86 | 1022.5 |
| 20260505060031 | 66 | 124 | 0.0 | 3.0 | 0.00 | 0.00 | 0.00 | 85 | 1014.3 |
| 20260505054601 | 62 | 152 | 9.0 | 16.0 | 0.00 | 0.00 | 0.00 | 87 | 1022.6 |
| 20260505054548 | 65 | 0 | 0.0 | 2.0 | 0.00 | 0.00 | 0.00 | 85 | 1014.2 |
| 20260505053109 | 61 | 148 | 6.0 | 12.0 | 0.00 | 0.00 | 0.00 | 89 | 1022.6 |
| 20260505053051 | 66 | 0 | 0.0 | 2.0 | 0.00 | 0.00 | 0.00 | 84 | 1014.2 |
| 20260505051552 | 59 | 133 | 5.0 | 9.0 | 0.00 | 0.00 | 0.00 | 89 | 1022.4 |
| 20260505051541 | 64 | 0 | 0.0 | 3.0 | 0.00 | 0.00 | 0.00 | 87 | 1014.0 |
| 20260505041611 | 56 | 135 | 2.0 | 8.0 | 0.00 | 0.00 | 0.00 | 91 | 1022.1 |
| 20260505041536 | 63 | 215 | 0.0 | 6.0 | 0.00 | 0.00 | 0.00 | 89 | 1013.5 |
| 20260505040056 | 56 | 141 | 4.0 | 9.0 | 0.00 | 0.00 | 0.00 | 91 | 1021.7 |
| 20260505040041 | 62 | 209 | 1.0 | 7.0 | 0.00 | 0.00 | 0.00 | 89 | 1013.5 |
| 20260505034558 | 56 | 169 | 5.0 | 10.0 | 0.00 | 0.00 | 0.00 | 91 | 1021.7 |
| 20260505034535 | 60 | 183 | 0.0 | 3.0 | 0.00 | 0.00 | 0.00 | 91 | 1013.5 |
| 20260505033056 | 56 | 162 | 5.0 | 10.0 | 0.00 | 0.00 | 0.00 | 91 | 1021.6 |
| 20260505033036 | 60 | 0 | 0.0 | 5.0 | 0.00 | 0.00 | 0.00 | 88 | 1013.4 |
| 20260505031602 | 56 | 184 | 6.0 | 12.0 | 0.00 | 0.00 | 0.00 | 91 | 1021.3 |
| 20260505031533 | 61 | 199 | 3.0 | 6.0 | 0.00 | 0.00 | 0.00 | 90 | 1013.4 |
| 20260505030051 | 56 | 169 | 5.0 | 9.0 | 0.00 | 0.00 | 0.00 | 91 | 1021.3 |
| 20260505030035 | 59 | 153 | 0.0 | 3.0 | 0.00 | 0.00 | 0.00 | 89 | 1013.4 |
| 20260505024555 | 56 | 185 | 6.0 | 10.0 | 0.00 | 0.00 | 0.00 | 91 | 1021.0 |
| 20260505024534 | 60 | 175 | 1.0 | 5.0 | 0.00 | 0.00 | 0.00 | 89 | 1013.2 |
| 20260505023103 | 56 | 153 | 6.0 | 8.0 | 0.00 | 0.00 | 0.00 | 91 | 1021.2 |
| 20260505023034 | 59 | 200 | 1.0 | 4.0 | 0.00 | 0.00 | 0.00 | 89 | 1013.3 |
| 20260505021605 | 56 | 155 | 4.0 | 7.0 | 0.00 | 0.00 | 0.00 | 90 | 1021.4 |
| 20260505021530 | 60 | 0 | 2.0 | 7.0 | 0.00 | 0.00 | 0.00 | 88 | 1013.2 |
| 20260505020053 | 56 | 157 | 3.0 | 5.0 | 0.00 | 0.00 | 0.00 | 90 | 1021.5 |
| 20260505020032 | 60 | 176 | 3.0 | 7.0 | 0.00 | 0.00 | 0.00 | 87 | 1013.4 |
| 20260505014553 | 56 | 161 | 2.0 | 4.0 | 0.00 | 0.00 | 0.00 | 90 | 1021.6 |
| 20260505014536 | 60 | 194 | 2.0 | 8.0 | 0.00 | 0.00 | 0.00 | 87 | 1013.2 |
| 20260505013059 | 56 | 169 | 2.0 | 4.0 | 0.00 | 0.00 | 0.00 | 90 | 1021.5 |
| 20260505013032 | 59 | 177 | 2.0 | 6.0 | 0.00 | 0.00 | 0.00 | 87 | 1013.4 |
| 20260505011557 | 57 | 165 | 1.0 | 4.0 | 0.00 | 0.00 | 0.00 | 90 | 1021.6 |
| 20260505011541 | 59 | 0 | 0.0 | 3.0 | 0.00 | 0.00 | 0.00 | 86 | 1013.4 |
| 20260505010056 | 57 | 166 | 1.0 | 3.0 | 0.00 | 0.00 | 0.00 | 90 | 1021.6 |
| 20260505010032 | 59 | 173 | 1.0 | 4.0 | 0.00 | 0.00 | 0.00 | 85 | 1013.5 |
| 20260505004552 | 57 | 166 | 1.0 | 3.0 | 0.00 | 0.00 | 0.00 | 89 | 1021.8 |
| 20260505004536 | 60 | 137 | 0.0 | 3.0 | 0.00 | 0.00 | 0.00 | 84 | 1013.6 |
| 20260505003057 | 57 | 166 | 2.0 | 4.0 | 0.00 | 0.00 | 0.00 | 90 | 1021.7 |
| 20260505003031 | 59 | 179 | 0.0 | 1.0 | 0.00 | 0.00 | 0.00 | 86 | 1013.5 |
| 20260505001556 | 57 | 166 | 1.0 | 4.0 | 0.00 | 0.00 | 0.00 | 89 | 1021.7 |
| 20260505001535 | 59 | 0 | 0.0 | 0.0 | 0.00 | 0.00 | 0.00 | 86 | 1013.8 |
| 20260505000058 | 57 | 154 | 2.0 | 5.0 | 0.00 | 0.00 | 0.00 | 90 | 1022.0 |
| 20260505000033 | 59 | 0 | 0.0 | 0.0 | 0.00 | 0.00 | 0.00 | 85 | 1013.9 |
| 20260504234619 | 57 | 183 | 0.0 | 2.0 | 0.00 | 0.00 | 0.00 | 89 | 1022.1 |
| 20260504234533 | 61 | 0 | 0.0 | 0.0 | 0.00 | 0.00 | 0.00 | 83 | 1013.8 |
| 20260504233054 | 57 | 0 | 1.0 | 3.0 | 0.00 | 0.00 | 0.00 | 89 | 1022.1 |
| 20260504233032 | 62 | 0 | 0.0 | 1.0 | 0.00 | 0.00 | 0.00 | 81 | 1013.9 |
| 20260504231602 | 57 | 183 | 2.0 | 4.0 | 0.00 | 0.00 | 0.00 | 89 | 1022.1 |
| 20260504231530 | 63 | 0 | 0.0 | 1.0 | 0.00 | 0.00 | 0.00 | 81 | 1013.8 |
| 20260504230058 | 57 | 121 | 2.0 | 3.0 | 0.00 | 0.00 | 0.00 | 88 | 1022.1 |
| 20260504230031 | 63 | 0 | 0.0 | 1.0 | 0.00 | 0.00 | 0.00 | 80 | 1014.0 |
| 20260504224600 | 57 | 172 | 1.0 | 4.0 | 0.00 | 0.00 | 0.00 | 88 | 1022.4 |
| 20260504224532 | 63 | 0 | 0.0 | 1.0 | 0.00 | 0.00 | 0.00 | 79 | 1014.2 |
| 20260504223101 | 58 | 177 | 2.0 | 4.0 | 0.00 | 0.00 | 0.00 | 87 | 1022.6 |
| 20260504223033 | 63 | 0 | 0.0 | 1.0 | 0.00 | 0.00 | 0.00 | 80 | 1014.4 |
| 20260504221609 | 58 | 171 | 0.0 | 2.0 | 0.00 | 0.00 | 0.00 | 87 | 1022.9 |
| 20260504221536 | 61 | 251 | 0.0 | 2.0 | 0.00 | 0.00 | 0.00 | 84 | 1014.5 |
| 20260504220058 | 58 | 171 | 1.0 | 4.0 | 0.00 | 0.00 | 0.00 | 86 | 1022.8 |
| 20260504220033 | 60 | 236 | 0.0 | 2.0 | 0.00 | 0.00 | 0.00 | 84 | 1014.5 |
| 20260504214559 | 59 | 171 | 2.0 | 4.0 | 0.00 | 0.00 | 0.00 | 86 | 1023.0 |
| 20260504214539 | 61 | 250 | 0.0 | 1.0 | 0.00 | 0.00 | 0.00 | 82 | 1014.6 |
| 20260504213103 | 59 | 173 | 1.0 | 3.0 | 0.00 | 0.00 | 0.00 | 85 | 1023.0 |
| 20260504213040 | 61 | 246 | 0.0 | 3.0 | 0.00 | 0.00 | 0.00 | 83 | 1014.7 |
| 20260504211558 | 60 | 175 | 1.0 | 5.0 | 0.00 | 0.00 | 0.00 | 84 | 1023.1 |
| 20260504211534 | 62 | 248 | 0.0 | 2.0 | 0.00 | 0.00 | 0.00 | 79 | 1014.7 |
| 20260504210109 | 60 | 165 | 3.0 | 5.0 | 0.00 | 0.00 | 0.00 | 84 | 1023.2 |
| 20260504210033 | 63 | 0 | 0.0 | 1.0 | 0.00 | 0.00 | 0.00 | 79 | 1014.9 |
| 20260504204602 | 60 | 180 | 1.0 | 3.0 | 0.00 | 0.00 | 0.00 | 84 | 1023.3 |
| 20260504204529 | 62 | 0 | 0.0 | 2.0 | 0.00 | 0.00 | 0.00 | 81 | 1015.0 |
| 20260504203058 | 60 | 179 | 1.0 | 3.0 | 0.00 | 0.00 | 0.00 | 84 | 1023.2 |
| 20260504203035 | 63 | 0 | 0.0 | 0.0 | 0.00 | 0.00 | 0.00 | 77 | 1015.1 |
| 20260504201602 | 65 | 0 | 0.0 | 1.0 | 0.00 | 0.00 | 0.00 | 74 | 1015.4 |
| 20260504201554 | 61 | 188 | 2.0 | 4.0 | 0.00 | 0.00 | 0.00 | 83 | 1023.2 |
| 20260504200100 | 61 | 178 | 1.0 | 2.0 | 0.00 | 0.00 | 0.00 | 82 | 1023.4 |
| 20260504200041 | 66 | 0 | 0.0 | 2.0 | 0.00 | 0.00 | 0.00 | 72 | 1015.3 |
| 20260504194608 | 61 | 178 | 1.0 | 3.0 | 0.00 | 0.00 | 0.00 | 82 | 1023.4 |
| 20260504194536 | 66 | 0 | 0.0 | 2.0 | 0.00 | 0.00 | 0.00 | 71 | 1015.3 |
| 20260504193053 | 62 | 180 | 2.0 | 4.0 | 0.00 | 0.00 | 0.00 | 81 | 1023.4 |
| 20260504193035 | 67 | 0 | 0.0 | 1.0 | 0.00 | 0.00 | 0.00 | 70 | 1015.4 |
| 20260504191554 | 62 | 155 | 2.0 | 6.0 | 0.00 | 0.00 | 0.00 | 80 | 1023.4 |
| 20260504191550 | 68 | 0 | 0.0 | 1.0 | 0.00 | 0.00 | 0.00 | 67 | 1015.3 |
| 20260504190117 | 63 | 151 | 1.0 | 4.0 | 0.00 | 0.00 | 0.00 | 80 | 1023.4 |
| 20260504190038 | 69 | 0 | 0.0 | 1.0 | 0.00 | 0.00 | 0.00 | 66 | 1015.4 |
| 20260504184558 | 63 | 173 | 2.0 | 5.0 | 0.00 | 0.00 | 0.00 | 79 | 1023.4 |
| 20260504184548 | 69 | 0 | 0.0 | 1.0 | 0.00 | 0.00 | 0.00 | 65 | 1015.3 |
| 20260504183056 | 63 | 161 | 2.0 | 4.0 | 0.00 | 0.00 | 0.00 | 79 | 1023.5 |
| 20260504183041 | 69 | 0 | 0.0 | 2.0 | 0.00 | 0.00 | 0.00 | 65 | 1015.3 |
| 20260504181558 | 64 | 182 | 2.0 | 4.0 | 0.00 | 0.00 | 0.00 | 78 | 1023.4 |
| 20260504181535 | 71 | 292 | 0.0 | 2.0 | 0.00 | 0.00 | 0.00 | 61 | 1015.1 |
| 20260504180144 | 65 | 158 | 1.0 | 5.0 | 0.00 | 0.00 | 0.00 | 77 | 1023.2 |
| 20260504180036 | 69 | 0 | 0.0 | 3.0 | 0.00 | 0.00 | 0.00 | 63 | 1015.1 |
| 20260504174556 | 65 | 158 | 2.0 | 5.0 | 0.00 | 0.00 | 0.00 | 76 | 1023.3 |
| 20260504174535 | 69 | 274 | 0.0 | 3.0 | 0.00 | 0.00 | 0.00 | 66 | 1015.0 |
| 20260504173113 | 66 | 150 | 2.0 | 6.0 | 0.00 | 0.00 | 0.00 | 75 | 1023.1 |
| 20260504173032 | 68 | 234 | 0.0 | 2.0 | 0.00 | 0.00 | 0.00 | 70 | 1014.6 |
| 20260504171558 | 66 | 153 | 2.0 | 5.0 | 0.00 | 0.00 | 0.00 | 75 | 1023.0 |
| 20260504171532 | 70 | 0 | 0.0 | 2.0 | 0.00 | 0.00 | 0.00 | 64 | 1014.5 |